Change the Weather History Date:

Friday, November 15, 2013

  Actual Average (KWAL) Record (KWAL)
Temperature  
Mean Temperature 50 °F 50 °F  
Max Temperature 60 °F 59 °F 82 °F (1993)
Min Temperature 39 °F 41 °F 27 °F (1986)
Degree Days  
Heating Degree Days 16    
Month to date heating degree days  
Since 1 July heating degree days  
Cooling Degree Days 0    
Month to date cooling degree days  
Year to date cooling degree days  
Moisture  
Dew Point 35 °F    
Average Humidity 55    
Maximum Humidity 81    
Minimum Humidity 25    
Precipitation  
Precipitation 0.00 in 0.09 in 0.63 in (2008)
Month to date precipitation 1.42  
Year to date precipitation 35.96  
Sea Level Pressure  
Sea Level Pressure 30.28 in    
Wind  
Wind Speed 7 mph (SSW)    
Max Wind Speed 16 mph    
Max Gust Speed 23 mph    
Visibility 10 miles    
Events      
T = Trace of Precipitation, MM = Missing Value Source: NWS Daily Summary

Daily Weather History Graph

Daily Weather History Graph

Search for Another Location

Airport or City:

Trip Planner

Search our weather history database for the weather conditions in past years. The results will help you decide how hot, cold, wet, or windy it might be!

Date:

Astronomy

Nov. 15, 2013 Rise Set
Actual Time 6:43 AM EST 4:51 PM EST
Civil Twilight 6:15 AM EST 5:19 PM EST
Nautical Twilight 5:43 AM EST 5:51 PM EST
Astronomical Twilight 5:12 AM EST 6:22 PM EST
Moon 3:45 PM EST (11/15) 4:39 AM EST (11/15)
Length of Visible Light 11h 04m
Length of Day
10h 08m
Waxing Gibbous, 96% of the Moon is Illuminated
Nov 15
Waxing Gibbous
Nov 17
Full
Nov 25
Last Quarter
Dec 2
New
Dec 9
First Quarter

Hourly Weather History & Observations

Time (EST) Temp. Windchill Dew Point Humidity Pressure Visibility Wind Dir Wind Speed Gust Speed Precip Events Conditions
12:15 AM 42.8 °F 39.3 °F 32.0 °F 66% 30.31 in 10.0 mi SSW 5.8 mph - N/A   Clear
12:35 AM 42.8 °F 40.1 °F 33.8 °F 70% 30.30 in 10.0 mi SSW 4.6 mph - N/A   Clear
12:55 AM 42.8 °F 38.6 °F 33.8 °F 70% 30.30 in 10.0 mi SW 6.9 mph - N/A   Clear
1:15 AM 42.8 °F 39.3 °F 33.8 °F 70% 30.29 in 10.0 mi SSW 5.8 mph - N/A   Clear
1:36 AM 42.8 °F 41.1 °F 33.8 °F 70% 30.29 in 10.0 mi South 3.5 mph - N/A   Clear
1:55 AM 39.2 °F - 33.8 °F 81% 30.29 in 10.0 mi Calm Calm - N/A   Clear
2:15 AM 39.2 °F 35.9 °F 33.8 °F 81% 30.30 in 10.0 mi SW 4.6 mph - N/A   Clear
2:35 AM 39.2 °F 34.2 °F 33.8 °F 81% 30.30 in 10.0 mi SSW 6.9 mph - N/A   Clear
2:55 AM 39.2 °F 33.6 °F 33.8 °F 81% 30.30 in 10.0 mi SW 8.1 mph - N/A   Clear
3:15 AM 42.8 °F 39.3 °F 33.8 °F 70% 30.29 in 10.0 mi SW 5.8 mph - N/A   Clear
3:35 AM 41.0 °F 37.1 °F 32.0 °F 70% 30.29 in 10.0 mi SSW 5.8 mph - N/A   Clear
3:55 AM 42.8 °F 38.6 °F 33.8 °F 70% 30.29 in 10.0 mi SSW 6.9 mph - N/A   Clear
4:15 AM 42.8 °F 38.0 °F 32.0 °F 66% 30.29 in 10.0 mi SSW 8.1 mph - N/A   Clear
4:35 AM 44.6 °F 41.4 °F 32.0 °F 61% 30.29 in 10.0 mi SSW 5.8 mph - N/A   Clear
4:55 AM 42.8 °F 39.3 °F 32.0 °F 66% 30.29 in 10.0 mi South 5.8 mph - N/A   Clear
5:15 AM 44.6 °F 41.4 °F 32.0 °F 61% 30.30 in 10.0 mi South 5.8 mph - N/A   Clear
5:35 AM 42.8 °F 38.6 °F 33.8 °F 70% 30.29 in 10.0 mi South 6.9 mph - N/A   Clear
5:55 AM 42.8 °F 37.5 °F 33.8 °F 70% 30.30 in 10.0 mi SSW 9.2 mph - N/A   Clear
6:15 AM 44.6 °F 40.2 °F 32.0 °F 61% 30.31 in 10.0 mi SSW 8.1 mph - N/A   Clear
6:35 AM 44.6 °F 40.2 °F 32.0 °F 61% 30.32 in 10.0 mi SSW 8.1 mph - N/A   Clear
6:55 AM 44.6 °F 40.7 °F 32.0 °F 61% 30.32 in 10.0 mi SSW 6.9 mph - N/A   Clear
7:15 AM 44.6 °F 42.2 °F 32.0 °F 61% 30.32 in 10.0 mi South 4.6 mph - N/A   Clear
7:35 AM 44.6 °F 42.2 °F 32.0 °F 61% 30.32 in 10.0 mi South 4.6 mph - N/A   Clear
7:55 AM 48.2 °F - 32.0 °F 54% 30.33 in 10.0 mi SSW 5.8 mph - N/A   Clear
8:15 AM 50.0 °F - 33.8 °F 54% 30.32 in 10.0 mi South 6.9 mph - N/A   Clear
8:35 AM 51.8 °F - 33.8 °F 50% 30.33 in 10.0 mi SSW 6.9 mph - N/A   Clear
8:55 AM 53.6 °F - 33.8 °F 47% 30.33 in 10.0 mi SSW 8.1 mph - N/A   Clear
9:15 AM 55.4 °F - 33.8 °F 44% 30.33 in 10.0 mi SW 8.1 mph - N/A   Clear
9:35 AM 57.2 °F - 32.0 °F 38% 30.33 in 10.0 mi SW 6.9 mph - N/A   Clear
9:55 AM 59.0 °F - 28.4 °F 31% 30.33 in 10.0 mi SW 12.7 mph 17.3 mph N/A   Clear
10:15 AM 59.0 °F - 26.6 °F 29% 30.32 in 10.0 mi SW 16.1 mph - N/A   Clear
10:35 AM 59.0 °F - 24.8 °F 27% 30.32 in 10.0 mi SW 11.5 mph 23.0 mph N/A   Clear
10:55 AM 60.8 °F - 26.6 °F 27% 30.31 in 10.0 mi SW 12.7 mph 19.6 mph N/A   Clear
11:15 AM 60.8 °F - 26.6 °F 27% 30.31 in 10.0 mi SW 13.8 mph 19.6 mph N/A   Clear
11:35 AM 60.8 °F - 26.6 °F 27% 30.30 in 10.0 mi SW 16.1 mph - N/A   Clear
11:56 AM 60.8 °F - 24.8 °F 25% 30.29 in 10.0 mi SW 12.7 mph 21.9 mph N/A   Clear
12:15 PM 60.8 °F - 26.6 °F 27% 30.28 in 10.0 mi SW 12.7 mph 17.3 mph N/A   Clear
12:35 PM 60.8 °F - 24.8 °F 25% 30.27 in 10.0 mi SW 16.1 mph 19.6 mph N/A   Clear
12:55 PM 60.8 °F - 26.6 °F 27% 30.27 in 10.0 mi SW 13.8 mph - N/A   Clear
1:15 PM 60.8 °F - 26.6 °F 27% 30.26 in 10.0 mi SW 10.4 mph - N/A   Clear
1:37 PM 59.0 °F - 26.6 °F 29% 30.26 in 10.0 mi SSW 10.4 mph - N/A   Clear
1:57 PM 60.8 °F - 28.4 °F 29% 30.25 in 10.0 mi SW 9.2 mph - N/A   Clear
2:15 PM 60.8 °F - 30.2 °F 31% 30.25 in 10.0 mi SW 10.4 mph - N/A   Clear
2:35 PM 60.8 °F - 30.2 °F 31% 30.25 in 10.0 mi SW 9.2 mph - N/A   Clear
2:55 PM 59.0 °F - 30.2 °F 34% 30.25 in 10.0 mi SW 6.9 mph - N/A   Clear
3:15 PM 59.0 °F - 33.8 °F 39% 30.24 in 10.0 mi SSW 5.8 mph - N/A   Clear
3:35 PM 59.0 °F - 33.8 °F 39% 30.24 in 10.0 mi SSW 5.8 mph - N/A   Clear
3:57 PM 59.0 °F - 35.6 °F 42% 30.24 in 10.0 mi South 4.6 mph - N/A   Clear
4:15 PM 57.2 °F - 37.4 °F 48% 30.24 in 10.0 mi South 4.6 mph - N/A   Clear
4:37 PM 57.2 °F - 39.2 °F 51% 30.24 in 10.0 mi South 4.6 mph - N/A   Clear
4:55 PM 55.4 °F - 39.2 °F 54% 30.24 in 10.0 mi Calm Calm - N/A   Clear
5:15 PM 55.4 °F - 41.0 °F 58% 30.24 in 10.0 mi South 4.6 mph - N/A   Clear
5:35 PM 53.6 °F - 42.8 °F 67% 30.25 in 10.0 mi South 3.5 mph - N/A   Clear
6:15 PM 53.6 °F - 42.8 °F 67% 30.25 in 10.0 mi Calm Calm - N/A   Clear
6:35 PM 51.8 °F - 42.8 °F 71% 30.25 in 10.0 mi Calm Calm - N/A   Clear
6:55 PM 51.8 °F - 42.8 °F 71% 30.25 in 10.0 mi SSE 3.5 mph - N/A   Clear
7:15 PM 51.8 °F - 42.8 °F 71% 30.25 in 10.0 mi Calm Calm - N/A   Clear
7:35 PM 51.8 °F - 42.8 °F 71% 30.25 in 10.0 mi SSE 4.6 mph - N/A   Clear
7:56 PM 51.8 °F - 42.8 °F 71% 30.25 in 10.0 mi SSE 4.6 mph - N/A   Clear
8:15 PM 51.8 °F - 42.8 °F 71% 30.25 in 10.0 mi South 4.6 mph - N/A   Clear
8:35 PM 51.8 °F - 42.8 °F 71% 30.26 in 10.0 mi South 4.6 mph - N/A   Clear
8:55 PM 55.4 °F - 42.8 °F 63% 30.26 in 10.0 mi South 6.9 mph - N/A   Mostly Cloudy
9:15 PM 57.2 °F - 44.6 °F 63% 30.26 in 10.0 mi South 6.9 mph - N/A   Overcast
9:35 PM 59.0 °F - 44.6 °F 59% 30.25 in 10.0 mi SSW 5.8 mph - N/A   Overcast
9:55 PM 59.0 °F - 46.4 °F 63% 30.26 in 10.0 mi South 6.9 mph - N/A   Overcast
10:15 PM 59.0 °F - 46.4 °F 63% 30.26 in 10.0 mi South 6.9 mph - N/A   Overcast
10:35 PM 60.8 °F - 46.4 °F 59% 30.26 in 10.0 mi SSW 5.8 mph - N/A   Overcast
10:55 PM 60.8 °F - 46.4 °F 59% 30.26 in 10.0 mi South 4.6 mph - N/A   Overcast
11:15 PM 60.8 °F - 44.6 °F 55% 30.26 in 10.0 mi SSW 4.6 mph - N/A   Overcast
11:35 PM 60.8 °F - 44.6 °F 55% 30.26 in 10.0 mi SSW 4.6 mph - N/A   Overcast
11:55 PM 60.8 °F - 44.6 °F 55% 30.26 in 10.0 mi SW 3.5 mph - N/A   Overcast